Location: Mentone
(34.5413°N, 85.5351°W)
Time: 08:55:31
(UTC-06:00)

ATLAS 5 CENTAUR R/B - Visible Passes

Search period start: 13 December 2017 00:00
Search period end: 23 December 2017 00:00
Orbit: 615 x 1045 km, 63.4° (Epoch: 12 December)

Date Brightness Start Highest point End Pass type
(mag) Time Alt. Az. Time Alt. Az. Time Alt. Az.
15 Dec 4.8 06:02:34 10° NNE 06:03:31 10° NE 06:04:29 10° NE visible
20 Dec 3.6 06:08:38 10° NNW 06:14:21 40° NE 06:20:31 10° ESE visible
21 Dec 3.7 05:49:41 10° NNW 05:55:19 38° NE 06:01:25 10° ESE visible
22 Dec 3.8 05:30:45 10° NNW 05:36:18 36° NE 05:42:18 10° ESE visible
